This demonstration page uses our WeatherBlox Daily Observations layout. Learn more.

Hourly Observations for March 26, 2020

Temp ( °F °C ) Dew Point ( °F °C ) Humidity (%) Winds ( mph kmh ) Pressure ( in mb ) Visibility ( mi km ) Precip ( " mm )
12:15 am 00:15 Cloudy 42 5.6 39 4.1 90 90 NE 17 28 29.82 1010 10 16.0934 0 0
12:35 am 00:35 Cloudy 42 5.5 39 4.1 91 91 NE 21 33 29.81 1010 10 16.0934 0 0
12:55 am 00:55 Cloudy 42 5.3 39 4.1 92 92 NE 20 31 29.82 1010 10 16.0934 0 0
1:15 am 01:15 Cloudy 41 5 39 3.9 93 93 NE 22 35 29.82 1010 10 16.0934 0 0
1:35 am 01:35 Cloudy 40 4.7 38 3.6 93 93 NE 22 35 29.82 1010 10 16.0934 0 0
1:55 am 01:55 Cloudy 40 4.5 38 3.5 93 93 NE 22 35 29.81 1010 10 16.0934 0 0
2:15 am 02:15 Cloudy 40 4.3 38 3.5 95 95 NE 21 33 29.81 1010 10 16.0934 0 0
2:35 am 02:35 Cloudy 40 4.2 38 3.4 95 95 NE 21 33 29.81 1010 10 16.0934 0 0
2:55 am 02:55 Cloudy 39 4.1 38 3.4 95 95 NE 20 31 29.81 1009 7 11.26538 0 0
3:15 am 03:15 Cloudy 39 4 38 3.3 95 95 NE 18 30 29.82 1010 7 11.26538 0 0
3:35 am 03:35 Cloudy 39 4 38 3.3 95 95 NE 20 31 29.82 1010 7 11.26538 0 0
3:55 am 03:55 Cloudy 39 4.1 38 3.5 96 96 NNE 16 26 29.81 1009 7 11.26538 0 0
4:15 am 04:15 Cloudy 40 4.3 38 3.6 95 95 NNE 14 22 29.81 1010 7 11.26538 0 0
4:35 am 04:35 Cloudy 40 4.3 38 3.6 95 95 NNE 15 24 29.8 1009 7 11.26538 0 0
4:55 am 04:55 Cloudy 40 4.5 39 3.8 95 95 NNE 14 22 29.8 1009 10 16.0934 0 0
5:15 am 05:15 Cloudy 40 4.6 39 3.8 95 95 NE 12 19 29.8 1009 10 16.0934 0 0
5:35 am 05:35 Cloudy 40 4.6 39 3.7 94 94 NNE 14 22 29.8 1009 10 16.0934 0 0
5:55 am 05:55 Cloudy 40 4.7 39 3.8 94 94 NE 12 19 29.8 1009 10 16.0934 0 0
6:15 am 06:15 Cloudy 40 4.7 39 3.7 93 93 NE 12 19 29.81 1009 10 16.0934 0 0
6:35 am 06:35 Cloudy 40 4.5 38 3.5 93 93 NE 13 20 29.81 1010 10 16.0934 0 0
6:55 am 06:55 Cloudy 40 4.4 38 3.5 94 94 NNE 8 13 29.82 1010 10 16.0934 0 0
7:15 am 07:15 Cloudy 40 4.3 38 3.5 95 95 N 8 13 29.83 1010 10 16.0934 0 0
7:35 am 07:35 Cloudy 39 4 38 3.2 95 95 NNE 9 15 29.85 1011 7 11.26538 0 0
7:55 am 07:55 Cloudy 39 4 38 3.3 95 95 NNE 10 17 29.85 1011 10 16.0934 0 0
8:15 am 08:15 Cloudy 40 4.2 38 3.4 95 95 N 8 13 29.84 1011 10 16.0934 0 0
8:35 am 08:35 Cloudy 40 4.2 38 3.5 95 95 NNE 12 19 29.86 1011 10 16.0934 0 0
8:55 am 08:55 Cloudy 40 4.3 38 3.5 95 95 NNE 8 13 29.86 1011 10 16.0934 0 0
9:15 am 09:15 Cloudy 40 4.5 38 3.5 93 93 NE 10 17 29.86 1011 7 11.26538 0 0
9:35 am 09:35 Cloudy with Mist and Fog 40 4.6 39 3.9 95 95 NE 14 22 29.84 1011 5 8.0467 0 0
9:55 am 09:55 Cloudy with Mist and Fog 40 4.7 39 4 95 95 NE 12 19 29.84 1011 5 8.0467 0 0
10:15 am 10:15 Cloudy with Mist and Fog 41 4.9 39 4 94 94 NE 14 22 29.84 1010 5 8.0467 0 0
10:35 am 10:35 Cloudy with Mist and Fog 41 5 40 4.2 95 95 NNE 15 24 29.85 1011 5 8.0467 0 0
10:55 am 10:55 Cloudy 42 5.5 40 4.3 92 92 NNE 13 20 29.86 1011 10 16.0934 0 0
11:15 am 11:15 Cloudy 42 5.5 40 4.2 91 91 NE 14 22 29.85 1011 10 16.0934 0 0
11:35 am 11:35 Cloudy 42 5.5 39 3.9 90 90 NNE 12 19 29.85 1011 10 16.0934 0 0
11:55 am 11:55 Cloudy 42 5.3 39 4.1 92 92 NE 10 17 29.84 1011 7 11.26538 0 0
12:15 pm 12:15 Cloudy 42 5.5 39 4.1 91 91 NNE 10 17 29.85 1011 10 16.0934 0 0
12:35 pm 12:35 Cloudy 42 5.5 39 4 90 90 NE 14 22 29.83 1010 10 16.0934 0 0
12:55 pm 12:55 Cloudy 42 5.8 40 4.2 90 90 NE 13 20 29.83 1010 10 16.0934 0 0
1:15 pm 13:15 Cloudy 43 6.3 40 4.3 87 87 NE 13 20 29.82 1010 10 16.0934 0 0
1:35 pm 13:35 Cloudy 44 6.8 40 4.6 86 86 NE 9 15 29.81 1010 10 16.0934 0 0
1:55 pm 13:55 Cloudy 44 6.8 40 4.6 86 86 ENE 10 17 29.8 1009 10 16.0934 0 0
2:15 pm 14:15 Cloudy 45 7 40 4.7 85 85 E 9 15 29.8 1009 10 16.0934 0 0
2:35 pm 14:35 Cloudy 45 7 40 4.7 85 85 E 9 15 29.79 1009 10 16.0934 0 0
2:55 pm 14:55 Cloudy 46 7.5 41 5 84 84 E 7 11 29.78 1009 10 16.0934 0 0
3:15 pm 15:15 Cloudy 46 7.5 41 5.1 85 85 E 8 13 29.76 1008 10 16.0934 0 0
3:35 pm 15:35 Cloudy 45 7.2 41 5 86 86 ENE 8 13 29.78 1008 10 16.0934 0 0
3:55 pm 15:55 Cloudy 45 7 41 5.1 88 88 E 7 11 29.78 1008 7 11.26538 0 0
4:15 pm 16:15 Cloudy with Mist and Fog 44 6.8 42 5.3 90 90 E 8 13 29.77 1008 4 6.43736 0 0
4:35 pm 16:35 Cloudy with Mist and Fog 44 6.9 42 5.4 90 90 ENE 9 15 29.77 1008 5 8.0467 0 0
4:55 pm 16:55 Cloudy with Mist and Fog 44 6.8 42 5.5 92 92 ENE 12 19 29.75 1007 5 8.0467 0 0
5:15 pm 17:15 Cloudy with Mist and Fog 45 7 42 5.6 91 91 ENE 10 17 29.75 1007 5 8.0467 0 0
5:35 pm 17:35 Cloudy with Mist and Fog 45 7 42 5.5 90 90 ENE 9 15 29.75 1007 5 8.0467 0 0
5:55 pm 17:55 Cloudy with Mist and Fog 44 6.7 42 5.5 92 92 ENE 10 17 29.75 1008 4 6.43736 0 0
6:15 pm 18:15 Cloudy with Mist and Fog 44 6.5 42 5.5 93 93 ENE 12 19 29.74 1007 3 4.82802 0 0
6:35 pm 18:35 Cloudy with Mist and Fog 44 6.4 42 5.5 94 94 ENE 10 17 29.75 1008 2 3.21868 0 0
6:55 pm 18:55 Cloudy with Mist and Fog 44 6.4 42 5.6 95 95 E 9 15 29.76 1008 1 1.60934 0 0
7:15 pm 19:15 Cloudy with Mist and Fog 44 6.5 42 5.8 95 95 ENE 9 15 29.75 1008 1.25 2.011675 0 0
7:35 pm 19:35 Cloudy with Mist and Fog 43 6.2 42 5.6 96 96 ENE 9 15 29.77 1008 1.75 2.816345 0 0
7:55 pm 19:55 Cloudy with Mist and Fog 43 6.1 42 5.6 97 97 NE 9 15 29.76 1008 2 3.21868 0 0
8:15 pm 20:15 Cloudy with Mist and Fog 43 6.1 42 5.6 97 97 NE 9 15 29.77 1008 2.5 4.02335 0 0
8:35 pm 20:35 Cloudy with Mist and Fog 43 6 42 5.5 97 97 NE 12 19 29.79 1009 2 3.21868 0 0
8:55 pm 20:55 Cloudy with Mist and Fog 43 5.9 42 5.4 97 97 NE 10 17 29.78 1008 2 3.21868 0 0
9:15 pm 21:15 Cloudy with Mist and Fog 43 6 42 5.5 97 97 NNE 12 19 29.78 1008 1.75 2.816345 0 0
9:35 pm 21:35 Cloudy with Mist and Fog 43 6 42 5.6 97 97 NE 12 19 29.77 1008 1.75 2.816345 0 0
9:55 pm 21:55 Cloudy with Mist and Fog 43 6.2 42 5.8 97 97 NE 12 19 29.78 1008 2.5 4.02335 0 0
10:15 pm 22:15 Cloudy with Mist and Fog 43 6.2 42 5.8 97 97 NE 12 19 29.79 1009 3 4.82802 0 0
10:35 pm 22:35 Cloudy with Mist and Fog 43 6.2 42 5.8 97 97 NE 10 17 29.79 1009 2.5 4.02335 0 0
10:55 pm 22:55 Cloudy with Mist and Fog 43 6.3 43 6 98 98 NE 13 20 29.79 1009 2 3.21868 0 0
11:15 pm 23:15 Cloudy with Mist and Fog 43 6.3 43 6 98 98 NE 12 19 29.79 1009 2 3.21868 0 0
11:35 pm 23:35 Cloudy with Mist and Fog 44 6.5 43 6 97 97 NE 12 19 29.79 1009 2.5 4.02335 0 0
11:55 pm 23:55 Cloudy with Mist and Fog 44 6.5 43 6.1 97 97 ENE 10 17 29.79 1009 2.5 4.02335 0 0

Powered by AerisWeather